Regional Weather Roundup
Issued by NWS

Home | Current Version | Previous Version | Graphics & Text | Print | Product List | Glossary On
Versions: 1 2 3 4 5 6 7 8 9 10 11 12 13 14 15 16 17 18 19 20 21 22 23 24 25 26 27 28 29 30 31 32 33 34 35 36 37 38 39 40 41 42 43 44 45 46 47 48 49 50
000
ASUS43 KFSD 250602
RWRSD

WEATHER ROUNDUP FOR SOUTH DAKOTA
NATIONAL WEATHER SERVICE SIOUX FALLS SD
100 AM CDT SAT APR 25 2015

NOTE: "FAIR" INDICATES FEW OR NO CLOUDS BELOW 12,000 FEET WITH NO
SIGNIFICANT WEATHER AND/OR OBSTRUCTIONS TO VISIBILITY.


SDZ001>005-009-010-012>017-250700-
NORTHWEST AND NORTH CENTRAL SOUTH DAKOTA

CITY           SKY/WX    TMP DP  RH WIND       PRES   REMARKS
BUFFALO          N/A     48  34  58 E14       29.56F
FAITH            N/A     43  36  76 NE10      29.62F
MOBRIDGE       CLEAR     47  42  83 E21G30    29.63R
$$

SDZ012>016-024>037-041>051-057-063-072>074-250700-
SOUTHWEST AND SOUTH CENTRAL SOUTH DAKOTA

CITY           SKY/WX    TMP DP  RH WIND       PRES   REMARKS
RAPID CTY ARPT PTCLDY    46  41  82 N8        29.62S
PIERRE         MOCLDY    49  43  80 NE17      29.57R
CUSTER         PTCLDY    38  33  82 NE5       29.68S
ELLSWORTH AFB  PTCLDY    49  41  74 VRB1      29.62S
PHILIP         CLOUDY    49  43  80 E6        29.59S
PINE RIDGE     MOCLDY    45  43  93 SW3       29.63R
WINNER         MOCLDY    57  46  66 NW12      29.54R
$$

SDZ004>011-016>023-039-040-250700-
NORTHEAST SOUTH DAKOTA

CITY           SKY/WX    TMP DP  RH WIND       PRES   REMARKS
ABERDEEN       CLOUDY    47  43  86 NE14      29.67F
WATERTOWN      LGT RAIN  45  42  89 E17G28    29.65F FOG
BROOKINGS      CLOUDY    48  46  93 SE17      29.64F
SISSETON         N/A     44  43  96 SE17      29.72F
$$

SDZ017-020-022-023-036>040-048>070-250700-
SOUTHEAST SOUTH DAKOTA

CITY           SKY/WX    TMP DP  RH WIND       PRES   REMARKS
SIOUX FALLS    HVY RAIN  49  48  97 NE18      29.65R FOG
HURON          CLOUDY    50  46  86 E25G37    29.58R
MITCHELL       CLOUDY    55  52  89 E23G30    29.54R
YANKTON        FAIR      59  52  77 E6        29.58S
$$

ABBREVIATIONS USED IN REMARKS
   TC - TEMPERATURE IN CELSIUS
  WCI - WIND CHILL INDEX
   HX - HEAT INDEX
  VSB - VISIBILITY



USA.gov is the U.S. government's official web portal to all federal, state and local government web resources and services.